Find Starlink 34104

NORAD ID: 64102 Int'l Des: 2025-110 Owner: SPXS Country: US Constellation: starlink operational
LEOCIRCULAR

現在のビュー

3D地球を読み込み中...

About Starlink 34104

Starlink 34104 (NORAD 64102) is a starlink constellation satellite (v2 mini) launched May 23, 2025 by SPXS of US. It operates in LEO, CIRCULAR orbit with a mass of 575.00 kg.

次回通過

Passes for default location (London). Set your location on the main map for personalized predictions.

高度履歴

Loading altitude history...

軌道要素

1 64102U 25110G 26236.27132518 .00020372 00000-0 61220-3 0 9998
2 64102 53.1593 325.2765 0001983 84.7367 275.3862 15.34412244 71581
Epoch: Aug 24, 2026 • Age: 29 hours

現在のステータス

高度 472.3 km
遠地点 / 近地点 N/A
速度 7.63 km/s
衛星直下点 -29.34°S, 16.71°E
打ち上げ日 May 23, 2025
運用期間 1.2 years
タイプ internet

技術仕様

分類 Payload
質量 575.00 kg
乾燥質量 530.00 kg
総質量 575.00 kg
長さ 0.30 m
直径 4.10 m
スパン 29.00 m
形状 Box + pan
製造者 SPXS
バスタイプ Starlink V2MO
フェーズステータス In Orbit
所有者/国 SPXS/US

Most Searched